Wind_Speed
23 23 23 22 21 21 20 20 19 19 19 19 20 21 21 21 21 21 21 22 22 23 23 23 22 22 21 19 19 18 17 18 18 19 21 19 15 16 17 17 20 20 18 18 17 18 18 17 17 16 15 13 11 11 9 9 8 8 6 2 0 4 7 9 6 3 2 20 28 24 23 19 17 15 13 13 12 13 15 15 13 12 10 10 13 22 24 19
25 25 25 24 24 23 21 20 20 20 20 20 21 21 22 22 23 23 23 22 23 23 23 24 24 24 23 21 20 19 19 19 19 22 22 18 18 20 19 19 22 22 21 20 19 20 19 18 18 16 15 14 12 11 10 10 8 8 6 4 1 4 8 8 6 3 3 21 29 25 23 20 19 17 15 14 13 13 15 16 15 13 11 10 10 19 24 20
28 27 27 26 25 25 24 22 21 21 21 21 22 22 23 24 24 24 24 24 24 23 23 24 25 25 24 23 22 21 21 20 22 24 21 20 22 22 20 20 22 24 22 22 21 20 18 17 15 15 14 13 12 12 11 10 9 8 6 5 4 1 7 8 5 3 7 24 28 24 23 20 19 18 16 14 13 13 15 18 18 15 12 10 10 17 23 20
30 30 29 28 27 27 26 25 23 23 23 23 23 23 24 24 25 26 26 26 26 25 24 25 25 26 25 25 24 23 22 22 25 25 22 24 25 23 22 21 23 25 24 22 20 19 17 16 15 13 13 12 12 12 11 11 9 8 6 5 5 1 6 7 4 2 11 26 28 26 23 20 18 17 17 15 13 14 14 17 20 18 15 12 11 16 21 20
32 32 32 31 30 29 28 28 27 26 25 25 24 25 25 25 26 27 27 28 27 27 26 25 26 26 26 27 26 26 25 25 27 25 23 27 26 25 25 23 24 25 25 23 21 19 18 17 15 13 12 12 12 12 12 11 11 8 7 5 4 2 5 5 4 6 14 24 24 24 23 21 19 16 17 15 13 14 14 15 18 20 19 16 15 17 20 19
34 34 33 32 32 31 30 30 30 29 28 27 26 26 26 27 27 27 28 29 29 29 28 27 27 27 28 28 28 28 28 27 28 25 26 29 27 27 27 26 25 25 25 24 22 20 19 18 16 13 13 14 14 14 13 12 12 9 8 6 4 3 4 4 3 9 15 17 19 23 22 20 18 14 14 12 12 13 14 13 14 17 18 18 19 19 20 19
36 35 35 34 33 33 32 31 31 31 30 30 28 28 28 28 28 28 29 30 30 30 29 29 28 28 29 29 29 30 30 29 28 27 28 30 29 29 29 28 27 26 26 25 23 22 21 20 18 16 15 16 17 16 15 14 12 10 9 7 5 4 3 4 3 9 12 12 17 23 20 18 16 14 13 12 11 12 14 13 12 13 15 16 18 19 19 19
36 36 35 35 35 35 34 33 33 33 32 31 30 29 29 29 29 30 30 30 31 31 31 31 30 30 29 30 30 31 32 31 30 29 29 31 31 31 31 30 29 27 27 27 26 25 24 23 21 20 19 19 19 18 17 15 13 11 10 8 6 4 4 3 3 6 9 11 15 19 17 14 15 14 14 13 11 11 14 15 13 13 13 13 15 17 18 18
37 36 36 37 37 37 36 35 34 34 33 32 31 30 30 30 30 30 31 31 31 32 32 32 32 31 31 31 32 33 34 32 32 30 30 31 32 33 33 32 31 30 29 29 28 27 26 26 24 23 22 22 21 19 18 16 14 12 11 9 7 5 4 3 3 5 8 12 14 15 12 12 14 13 12 13 13 11 12 15 14 14 13 12 13 16 18 18
37 37 38 38 38 38 37 36 35 34 34 33 31 31 30 30 30 30 31 31 32 32 33 33 33 32 32 32 33 34 35 33 33 32 31 32 33 34 35 35 34 33 32 31 30 29 28 28 27 26 25 24 22 20 19 17 15 13 11 9 8 6 5 4 4 7 9 11 14 13 10 11 14 14 12 12 13 12 11 12 14 15 14 13 14 16 18 19
38 38 39 39 39 38 37 36 35 34 33 33 32 31 30 30 30 30 31 31 32 32 33 33 33 33 33 33 34 36 36 34 34 34 33 33 33 35 36 37 37 36 35 34 32 32 31 30 29 28 27 25 23 22 21 19 16 14 12 10 9 7 6 6 5 8 10 11 12 12 11 12 13 14 14 13 12 13 12 11 13 14 15 14 15 16 17 18
39 39 39 39 39 38 37 36 35 34 32 32 31 30 30 29 29 30 30 31 31 32 32 32 33 33 33 33 35 37 36 35 35 35 34 33 33 34 36 37 38 39 38 37 36 34 32 31 30 29 28 26 25 25 23 20 17 15 13 12 10 8 8 7 6 8 11 12 13 12 13 12 11 14 15 14 13 13 13 11 11 13 15 14 15 16 17 18
39 40 40 39 38 37 37 35 34 33 31 30 29 28 28 28 28 29 29 29 30 31 31 32 32 32 32 33 35 36 36 36 35 36 35 35 35 35 37 38 39 41 41 41 39 37 35 33 32 30 29 28 28 26 24 21 19 16 15 13 12 10 9 6 7 11 13 13 13 12 12 11 11 15 16 14 14 14 14 12 10 12 15 15 15 16 17 17
40 39 39 38 37 36 35 34 32 31 29 28 27 26 26 26 27 27 27 27 28 29 30 31 31 31 31 33 34 35 36 37 37 37 37 37 37 38 38 39 40 41 43 43 41 39 37 36 33 32 31 31 29 27 25 23 21 19 17 15 13 12 10 8 8 11 11 11 12 11 11 11 12 15 16 15 15 15 16 15 11 11 14 16 15 16 18 17
39 39 38 37 35 34 33 31 30 28 27 25 24 24 24 24 24 25 25 25 26 26 28 29 30 30 30 31 32 34 36 38 39 39 39 40 40 40 40 40 41 42 43 43 43 42 40 38 36 34 34 32 30 29 28 26 24 21 18 15 14 13 11 10 10 10 9 9 11 12 11 11 12 15 16 16 16 16 16 16 13 11 13 16 15 16 17 17
38 37 37 35 33 31 30 29 27 25 24 23 22 22 22 22 22 22 23 23 24 24 25 27 28 28 28 29 31 33 36 39 40 40 41 41 41 41 41 40 41 42 42 43 44 43 43 41 38 37 35 33 31 31 29 28 26 23 19 16 15 14 12 11 10 10 10 10 11 13 12 11 11 13 15 16 17 17 17 17 15 12 12 15 15 14 15 17
37 36 35 33 31 29 27 26 24 22 21 21 20 20 20 20 20 20 21 21 21 22 23 25 26 27 27 29 30 33 35 38 39 40 40 40 41 41 41 41 41 42 42 43 43 43 43 42 41 40 38 35 33 32 30 29 26 22 20 18 17 16 14 12 10 12 13 13 14 14 14 12 11 12 13 15 17 18 18 17 17 15 13 15 15 13 15 18
35 34 33 30 28 27 25 22 21 20 20 19 19 19 18 18 18 18 19 19 19 20 20 22 23 25 26 28 29 31 33 35 37 38 39 38 39 40 41 41 41 41 42 43 43 42 42 43 42 42 40 38 36 34 31 28 25 23 22 20 19 17 15 14 14 16 17 17 17 16 16 15 13 11 10 13 17 18 19 19 18 17 15 15 16 15 16 19
33 32 30 28 26 24 22 20 19 19 19 19 18 18 17 17 17 17 17 17 17 18 18 19 20 22 24 26 28 29 31 33 36 37 38 37 38 39 40 41 41 41 42 42 42 41 41 42 43 43 41 39 37 34 31 30 28 27 25 23 21 18 16 17 18 18 18 19 20 20 19 18 16 14 10 12 16 19 21 21 20 19 17 17 18 17 16 17
32 30 28 26 24 21 19 18 18 18 18 18 17 17 17 17 17 17 17 17 17 17 17 17 17 19 21 24 27 29 30 32 35 36 37 36 37 38 40 41 41 41 41 41 40 40 40 41 42 41 39 37 35 34 34 34 33 30 28 26 24 21 19 20 21 20 21 22 23 22 21 20 19 17 13 12 14 18 21 23 21 19 18 18 19 18 17 17
29 27 25 24 21 19 18 18 18 18 18 18 17 18 18 17 17 17 16 16 16 16 16 16 16 16 19 22 26 28 30 32 34 35 36 36 36 37 40 41 41 41 41 41 41 41 41 40 39 38 37 36 35 36 37 37 34 31 28 27 26 25 24 24 24 23 23 23 22 20 20 20 19 18 17 14 13 16 22 25 24 22 20 19 20 20 19 16
27 25 23 21 19 18 17 18 18 18 18 18 18 18 18 18 17 16 16 16 15 15 15 15 15 15 18 22 26 28 30 31 32 33 34 35 35 37 39 40 41 41 41 41 41 41 41 39 37 37 38 38 37 37 37 37 35 32 29 27 27 27 26 25 24 22 21 22 22 21 20 19 19 18 17 16 15 17 22 26 27 25 23 21 20 20 18 16
25 23 21 20 18 17 17 18 18 18 18 18 18 18 18 17 16 16 15 14 13 12 12 12 13 15 17 21 25 28 30 31 31 31 32 33 35 36 38 39 40 41 41 40 39 39 38 37 36 38 39 39 38 37 37 36 35 33 30 29 29 28 26 24 23 21 22 23 23 24 24 20 18 17 17 17 17 18 21 26 30 28 25 23 20 20 19 19
23 22 20 18 17 17 17 18 18 18 17 18 17 17 17 16 15 15 14 13 11 9 9 9 11 14 16 19 22 26 29 30 30 30 31 32 33 35 37 38 40 41 41 40 38 37 35 36 38 39 39 39 39 38 37 36 35 33 31 31 30 29 27 25 24 23 24 25 23 23 23 20 17 18 19 18 16 16 18 24 31 30 26 24 20 20 21 21
22 21 19 18 16 16 17 17 18 17 17 17 17 16 15 14 15 14 12 11 9 7 4 5 8 11 15 18 21 24 26 28 29 30 31 32 33 34 36 38 39 40 40 39 38 37 36 37 40 40 39 40 40 39 38 37 35 34 32 32 32 30 27 26 25 25 25 26 25 23 21 18 19 20 20 18 16 15 16 22 32 32 28 26 22 21 21 21
22 20 18 17 16 16 16 17 17 17 17 16 16 15 14 14 15 14 12 11 11 9 4 1 3 7 12 15 19 23 25 26 28 29 31 33 33 34 35 37 38 39 40 39 38 37 37 39 40 40 40 40 39 39 38 37 36 35 34 34 33 30 27 26 26 26 26 27 28 26 22 20 20 22 21 18 17 17 17 20 28 31 29 27 25 23 22 21
21 19 17 16 15 15 15 16 17 17 16 15 15 14 14 14 15 14 13 12 11 10 8 4 1 4 8 12 17 21 23 24 26 28 31 33 33 33 35 36 38 39 39 39 39 38 38 39 40 40 40 40 40 39 38 38 38 37 35 35 34 32 29 27 28 28 27 28 29 28 27 23 21 22 21 19 18 18 18 19 22 27 30 28 26 26 24 22
20 18 16 15 15 15 15 15 16 16 15 14 14 14 14 14 14 14 13 13 12 11 10 7 2 3 5 10 15 17 19 22 25 28 30 32 33 34 35 36 37 38 38 39 38 38 38 38 38 39 40 40 39 38 38 39 39 38 37 37 36 35 32 30 29 29 28 29 28 27 27 25 22 21 20 19 18 17 19 20 20 23 28 31 29 27 26 24
19 17 16 15 14 14 14 15 15 15 14 13 13 14 14 13 12 12 12 12 12 12 11 8 5 4 3 7 12 14 17 20 24 27 30 31 33 34 36 37 37 38 38 38 39 39 38 38 38 39 41 41 40 39 39 40 40 40 39 38 38 37 35 32 31 30 30 29 28 27 27 25 23 22 20 20 19 19 22 23 22 20 24 31 31 26 25 24
19 17 15 14 14 13 13 14 15 14 13 12 12 13 13 12 11 10 11 12 11 11 10 9 6 4 2 5 9 12 15 19 22 25 28 30 32 34 36 37 38 38 38 38 39 40 39 38 38 39 41 41 41 41 41 41 41 41 41 40 39 39 37 35 33 32 32 30 28 27 26 24 23 22 22 22 22 22 23 24 25 21 18 25 30 27 25 23
18 16 14 14 13 12 12 13 14 13 12 12 12 13 12 11 10 9 10 11 10 10 10 9 7 3 3 5 8 10 13 17 20 22 25 27 30 33 35 36 37 38 38 39 40 40 39 39 39 40 41 42 42 42 41 41 41 42 43 42 41 40 40 38 36 35 34 30 28 27 26 24 21 21 22 24 23 22 22 23 24 23 17 19 27 28 26 24
18 15 14 13 12 12 11 12 13 13 12 12 12 12 11 10 9 8 10 10 9 8 8 8 7 4 3 5 7 9 11 14 17 19 22 25 28 31 34 35 37 38 38 39 40 41 40 39 39 40 41 42 43 43 42 42 42 42 44 44 43 41 41 41 38 37 35 31 28 27 26 24 22 21 23 24 23 23 23 23 22 22 17 18 26 30 27 25
18 15 13 12 12 11 11 12 13 12 11 12 12 12 11 9 8 8 9 9 8 8 8 7 6 4 3 3 6 8 10 11 13 17 21 24 27 29 31 34 36 38 38 39 40 40 39 39 40 40 42 43 44 44 43 42 41 42 43 43 45 44 43 42 39 37 36 32 29 28 26 24 22 23 24 24 24 24 24 23 22 21 17 16 23 27 27 26
18 15 13 12 12 11 11 11 12 11 11 12 12 11 10 8 7 8 8 8 8 8 7 5 4 3 3 4 4 6 8 9 11 14 19 22 25 28 30 32 35 36 38 39 39 39 39 39 40 41 42 42 43 44 43 42 40 39 39 41 44 44 43 42 39 38 37 33 30 30 27 23 22 23 24 24 25 25 23 23 22 20 17 15 16 19 22 24
18 14 12 11 11 11 10 10 11 11 11 12 12 11 9 7 6 7 8 8 7 7 6 4 2 3 5 5 4 4 4 6 8 11 14 18 22 26 29 31 33 35 37 38 39 39 39 39 40 41 41 41 42 43 43 42 41 39 38 40 43 43 42 40 38 37 35 34 33 32 28 22 20 22 24 25 25 24 23 21 20 19 18 15 13 14 16 20
18 14 12 11 11 11 10 10 10 10 11 12 12 10 9 8 7 6 6 6 5 6 5 3 3 5 6 5 5 5 4 3 5 8 11 15 19 24 28 29 31 34 36 37 38 39 39 39 40 40 40 40 41 43 43 43 41 39 40 41 41 41 42 40 39 37 36 36 36 34 30 23 21 24 25 25 25 24 22 21 20 19 19 18 16 16 16 17
18 14 11 10 10 10 9 9 10 10 10 11 11 10 9 8 8 7 5 4 4 4 4 3 4 6 7 7 7 6 6 2 2 5 9 13 16 21 25 27 29 31 34 36 37 39 39 39 40 40 39 39 40 42 44 43 41 39 40 39 39 40 41 40 39 38 37 36 36 35 32 28 25 25 25 24 24 23 21 19 19 18 18 18 17 17 18 19
18 14 11 10 10 9 8 8 9 9 10 9 9 9 9 9 9 7 5 4 3 3 4 5 5 6 8 9 9 7 7 4 3 4 7 10 13 17 21 24 26 28 30 33 35 38 39 38 39 40 38 38 38 40 44 45 42 40 39 38 39 40 41 40 39 39 38 37 36 34 33 31 28 25 24 25 23 22 21 19 17 17 17 18 17 17 17 17
19 14 11 9 9 9 8 7 8 9 9 8 8 9 9 10 10 7 6 4 3 4 6 7 6 7 8 9 10 10 9 7 6 7 7 8 10 14 18 21 24 25 27 30 33 35 37 36 37 39 37 36 37 39 42 44 43 42 40 39 39 39 39 39 39 38 37 37 35 33 33 32 30 25 23 24 23 22 21 19 18 17 17 18 18 17 16 14
19 14 10 9 9 9 8 6 7 8 8 7 8 9 9 9 9 7 6 5 3 4 7 8 7 8 9 9 9 11 11 10 9 9 9 9 9 11 13 18 21 23 25 28 30 31 34 35 35 36 36 35 37 38 40 42 43 43 42 41 40 40 39 38 38 38 37 36 34 33 32 31 31 28 25 24 24 23 22 21 20 19 18 19 19 17 16 15
19 15 11 9 9 9 8 6 6 7 7 7 7 8 7 8 9 7 5 5 4 2 6 9 9 10 10 10 10 11 12 11 10 9 9 9 10 10 11 15 20 23 25 28 28 27 30 33 33 33 35 35 36 37 38 40 42 42 41 40 40 40 40 39 39 39 38 36 34 33 31 29 29 29 28 26 25 24 24 24 23 21 19 19 20 19 18 18
19 15 11 9 8 8 7 5 5 6 5 5 6 6 6 6 7 7 5 4 4 2 4 8 10 11 12 13 12 12 13 13 11 9 9 8 9 10 10 13 18 22 23 26 28 27 27 31 32 31 33 35 35 35 36 37 40 42 41 40 39 39 40 40 39 39 37 37 35 33 30 28 28 30 30 28 27 25 25 25 24 23 20 18 19 19 18 18
19 16 12 10 8 8 7 5 4 4 4 4 4 5 5 5 5 5 5 4 3 2 3 6 8 10 12 13 13 13 14 15 14 12 11 10 10 10 10 11 17 23 24 26 29 28 27 29 31 30 31 33 33 33 33 34 38 41 42 41 40 40 41 41 40 38 36 35 35 34 31 28 28 30 31 30 28 27 26 26 25 24 22 20 19 19 17 17
19 16 12 9 9 8 6 4 3 3 3 4 4 4 4 4 4 4 4 4 4 3 4 5 6 8 11 13 14 15 15 16 16 15 13 12 12 12 11 11 15 21 24 27 30 29 27 27 29 29 29 31 32 30 30 32 35 39 42 42 41 41 41 42 42 40 37 35 34 34 32 29 27 29 32 32 30 28 27 26 25 24 23 22 20 19 17 16
18 15 11 9 9 8 6 4 3 4 3 3 3 2 2 2 3 4 4 4 5 5 4 5 6 7 9 12 14 15 16 17 17 17 15 14 14 14 14 12 14 18 21 24 30 32 28 27 30 30 29 30 32 31 30 32 34 37 41 42 42 42 42 43 44 43 41 37 35 34 33 30 27 27 29 31 32 31 29 27 25 24 24 23 21 19 17 16
18 14 10 9 9 8 6 4 4 4 3 3 2 1 0 0 1 2 3 4 5 6 5 5 6 7 8 10 12 14 16 17 18 19 18 17 16 15 15 15 15 17 19 20 27 33 31 28 30 33 31 30 33 33 32 33 34 36 39 40 41 42 43 44 45 45 43 40 36 35 33 30 28 27 26 27 29 31 31 30 28 27 26 24 21 19 17 16
18 14 10 8 8 8 6 5 5 5 4 3 2 1 1 1 0 1 1 3 4 5 6 5 5 7 8 10 10 12 14 15 17 19 19 18 17 16 16 16 16 17 18 18 21 31 35 31 31 34 34 31 33 35 34 34 35 36 37 39 40 42 43 44 45 46 45 43 39 36 34 31 29 27 26 25 27 28 28 29 28 27 27 26 23 20 19 18
18 14 10 8 8 8 7 5 5 6 5 4 3 2 1 1 1 1 1 2 3 4 5 6 6 6 8 9 10 11 12 12 13 16 19 19 18 17 16 15 16 17 18 17 17 26 36 35 32 34 37 35 34 35 35 34 35 36 37 38 39 41 42 44 45 45 45 44 42 39 36 33 30 29 27 27 27 27 26 26 26 25 25 25 23 22 21 21
18 14 10 7 8 9 8 6 5 6 6 6 5 3 2 1 2 2 2 2 2 3 4 6 6 7 8 8 9 10 9 9 9 12 17 19 18 18 17 15 15 17 19 17 15 20 32 37 34 32 36 39 38 36 36 35 35 36 37 37 39 40 41 42 43 44 44 43 42 41 38 37 35 31 28 27 28 27 26 25 25 25 25 25 25 24 24 23
19 15 10 8 8 9 9 7 6 7 7 7 6 4 2 2 2 2 3 3 3 3 4 4 6 7 8 8 8 8 7 6 6 8 13 16 17 17 18 16 14 16 18 17 15 16 25 33 35 32 32 37 41 40 38 37 36 36 36 37 37 39 40 41 42 43 44 43 42 41 40 39 39 36 32 30 29 28 27 26 26 27 27 27 27 27 27 26
19 16 11 8 9 10 10 8 7 7 8 8 6 5 4 3 2 3 3 3 3 3 4 5 5 6 7 9 9 7 5 4 4 6 9 12 13 15 16 16 14 14 16 16 15 15 19 26 32 33 31 33 39 42 41 39 38 37 37 37 37 37 37 39 40 41 43 43 41 40 40 39 39 38 36 34 31 29 28 28 28 28 29 30 30 30 30 30
19 16 11 8 9 10 11 10 8 7 8 8 7 6 6 5 3 2 3 3 3 4 4 5 6 6 8 9 6 6 5 4 5 6 8 8 9 10 11 13 13 13 15 15 14 14 16 20 25 31 31 29 33 39 43 43 41 39 38 38 37 36 35 36 38 39 40 42 42 41 40 39 39 39 38 36 35 33 32 31 31 30 31 31 32 32 32 32
Wind_Direction
338 336 333 330 327 323 320 317 313 310 305 300 296 292 289 285 281 277 273 268 264 262 260 256 253 250 249 246 241 238 235 236 234 227 226 226 217 204 204 198 191 198 206 207 212 216 216 215 218 222 223 224 221 215 209 202 198 198 192 161 33 58 65 24 12 29 138 169 159 151 152 143 136 130 124 124 123 132 131 134 141 149 162 172 152 127 123 127
335 333 330 328 325 322 318 314 309 304 301 297 293 289 286 283 280 276 273 269 264 261 259 257 254 250 248 247 243 237 231 231 229 229 229 222 212 207 205 197 193 199 204 206 210 214 215 215 217 220 222 223 220 216 206 202 198 198 198 187 217 60 66 34 16 14 133 165 158 150 150 143 140 137 132 132 130 134 135 135 137 147 161 179 167 130 124 128
332 330 328 326 323 320 316 312 307 301 297 293 289 286 283 280 277 275 272 269 266 261 257 254 253 250 247 245 245 239 232 227 226 231 228 217 213 211 206 199 196 199 203 207 211 214 215 217 221 224 226 225 221 217 207 202 197 199 202 202 235 45 62 38 19 13 144 160 159 152 149 147 146 140 135 136 135 137 143 143 141 150 163 176 171 132 124 127
329 328 326 324 322 319 315 311 306 300 295 290 287 283 279 277 275 273 271 269 266 262 257 252 250 248 245 243 242 240 235 226 227 230 223 217 215 210 207 202 200 200 203 208 211 213 215 218 222 225 229 230 226 220 211 204 200 202 204 207 236 204 64 45 35 64 159 161 159 155 151 150 150 142 139 140 140 139 150 154 146 152 162 165 166 139 128 130
327 326 324 322 320 318 315 311 306 301 295 290 286 282 278 275 272 270 268 267 264 262 258 253 248 245 243 241 238 238 236 229 229 228 221 220 217 210 209 205 203 202 202 206 209 211 215 218 218 218 222 225 225 222 214 209 205 202 201 205 222 183 73 61 77 94 151 161 156 157 155 152 155 150 144 141 141 139 147 159 152 155 160 159 163 148 136 137
324 323 321 320 318 316 313 310 306 302 297 292 287 282 279 275 271 268 266 264 262 260 258 254 248 243 240 238 236 234 234 232 231 226 220 222 217 212 210 206 205 204 202 205 207 210 214 216 215 212 214 218 219 219 216 213 209 202 202 202 200 184 95 81 113 110 137 158 161 166 161 154 157 152 142 137 137 138 139 150 156 159 159 160 164 154 145 144
322 320 318 317 315 314 312 309 306 302 298 294 288 283 279 275 271 267 264 262 260 258 256 253 249 244 238 236 234 232 232 232 231 226 220 221 218 214 212 208 206 205 204 206 207 209 212 214 212 208 210 216 217 216 216 214 210 203 203 204 192 188 132 98 145 131 133 154 169 172 165 153 154 151 143 139 140 142 137 139 152 159 161 164 165 157 149 148
319 318 316 314 313 312 310 308 305 301 298 294 290 285 280 275 271 268 264 261 258 256 254 252 249 245 239 234 231 230 231 229 229 227 222 221 218 216 213 209 207 206 205 207 207 208 210 212 211 208 209 214 217 217 217 213 210 205 203 207 197 184 166 130 168 165 147 152 165 170 167 155 155 158 152 147 146 148 143 140 146 154 161 172 170 158 150 150
318 316 314 313 311 310 308 306 303 301 298 294 291 286 282 277 272 268 264 260 257 255 253 250 248 244 239 234 230 229 229 228 227 226 223 221 218 216 214 210 207 207 208 208 208 209 211 212 211 210 211 214 215 217 219 215 210 206 204 209 207 191 186 174 196 210 173 158 162 169 174 165 160 164 162 155 150 151 150 145 147 150 158 177 180 163 154 154
317 315 313 312 310 308 307 305 303 301 299 295 291 287 282 277 272 268 264 260 257 254 251 249 247 244 239 234 230 229 228 226 225 224 222 221 218 216 215 211 209 208 209 209 209 210 211 212 212 212 214 216 216 218 221 218 212 208 205 210 215 202 198 203 209 214 195 176 170 166 175 174 166 169 169 164 156 153 155 152 152 152 156 175 186 173 160 158
316 314 312 311 310 309 308 306 305 302 299 296 292 287 283 278 272 268 263 260 257 254 251 249 247 244 240 234 230 229 227 224 223 222 221 221 220 217 215 212 210 210 211 211 211 212 211 211 212 214 216 217 217 220 221 220 216 211 207 209 215 210 207 215 225 221 203 186 176 167 170 170 169 174 172 170 166 161 160 159 158 156 157 170 185 181 167 162
316 314 313 312 311 310 309 307 305 302 299 295 291 287 282 277 272 267 263 259 256 253 251 248 246 245 241 235 230 228 226 223 222 221 220 219 219 218 216 214 212 211 212 213 213 213 212 212 213 214 215 217 218 221 222 220 219 215 210 209 212 211 208 214 228 220 201 189 184 175 170 167 167 175 176 175 173 168 164 161 163 163 160 167 182 185 175 168
317 315 314 314 313 311 310 307 305 302 298 294 290 285 281 276 272 267 263 259 255 252 250 247 246 245 242 236 232 228 226 224 222 220 219 218 217 217 216 214 213 213 213 214 215 214 213 213 214 214 215 217 219 221 222 222 222 219 213 211 212 209 205 215 224 209 199 195 189 176 168 166 164 170 178 180 177 172 166 161 166 170 164 165 178 186 183 175
318 317 316 315 314 312 310 307 304 301 298 294 289 285 281 276 273 269 264 260 256 253 249 247 246 244 241 237 233 228 225 223 222 220 218 217 216 215 214 213 212 213 214 215 216 216 216 215 214 214 215 217 218 220 222 223 223 223 217 212 213 213 201 204 217 203 195 191 178 174 174 167 160 167 180 186 181 177 172 164 166 177 168 164 176 186 186 181
320 319 318 317 315 312 310 307 304 302 299 295 291 287 283 279 275 272 267 263 259 255 251 248 246 244 241 238 233 228 224 222 221 219 217 215 215 214 212 211 211 212 213 215 216 216 219 219 217 216 216 216 217 219 221 222 224 224 220 215 215 218 206 201 212 205 201 199 180 174 174 166 162 169 182 190 186 182 178 170 168 180 174 165 174 185 185 185
322 321 319 318 315 313 310 308 306 304 301 299 295 291 287 283 280 276 272 268 263 259 254 250 247 244 240 236 232 228 224 221 220 220 218 216 215 214 212 211 211 212 211 213 215 215 217 220 221 221 220 218 217 219 221 223 224 223 221 218 215 219 215 210 219 218 215 218 205 189 177 169 166 169 178 188 190 185 181 177 174 180 179 168 171 180 182 185
324 322 321 318 316 314 312 311 310 308 305 302 298 295 293 290 286 283 279 274 268 263 257 251 247 244 238 234 231 227 225 222 220 221 220 218 216 215 214 212 212 212 212 212 213 214 215 218 220 222 223 221 220 220 221 223 225 226 225 222 218 218 218 211 215 219 215 216 216 207 194 184 175 171 175 184 189 186 183 184 181 180 180 169 163 170 178 183
325 323 321 319 318 317 316 316 314 312 309 306 304 302 301 299 296 292 287 282 276 269 261 254 248 242 237 233 230 228 226 223 221 221 221 219 218 217 215 213 213 213 213 213 212 212 213 216 217 220 222 223 223 222 223 226 227 227 227 225 221 220 219 212 210 212 213 214 214 210 205 200 191 182 180 185 189 186 185 190 188 182 178 169 160 165 177 181
327 325 323 322 321 321 321 321 318 316 314 312 312 311 309 307 304 299 294 289 282 274 266 257 249 241 235 230 227 226 225 223 220 220 220 219 217 217 216 215 214 213 214 214 213 212 212 214 216 217 219 221 223 223 223 225 225 225 224 223 218 214 216 218 215 213 213 214 214 214 213 210 203 193 183 188 192 190 190 195 196 188 179 170 165 169 178 182
329 327 326 327 327 326 326 325 322 321 321 320 320 319 317 315 311 306 300 293 285 277 269 261 251 241 234 228 224 222 221 220 219 218 218 216 216 216 215 214 214 214 214 214 213 212 212 213 215 216 217 219 220 221 221 222 223 222 223 224 221 213 210 216 218 216 215 216 218 219 218 216 211 202 192 189 196 199 197 195 197 195 183 174 171 174 182 183
332 330 331 332 331 331 329 328 327 327 328 327 327 326 324 321 317 312 305 297 289 280 270 260 249 239 229 222 219 218 217 217 217 217 216 215 214 214 214 213 213 213 214 214 213 212 212 213 214 214 215 216 216 218 219 220 220 220 221 223 224 219 211 213 218 216 211 214 216 215 216 218 217 213 207 202 199 206 206 198 195 196 189 181 179 179 183 179
335 335 336 336 334 333 332 331 332 333 334 333 332 330 329 327 322 317 310 302 293 283 272 258 244 232 223 218 216 215 215 215 215 215 214 213 212 212 213 213 212 212 213 214 214 212 211 211 212 213 213 213 214 215 217 217 217 217 218 220 222 222 217 215 219 215 209 212 215 214 216 219 221 224 221 215 210 210 210 203 197 196 191 186 185 183 179 172
340 340 340 338 336 335 334 334 336 338 338 337 336 335 335 334 331 327 320 312 304 291 274 256 238 224 217 216 215 214 213 212 211 212 212 211 210 211 212 212 211 212 212 212 214 214 212 209 210 213 213 211 211 213 214 215 215 214 214 217 219 222 221 219 219 216 213 216 218 219 222 224 224 230 228 223 223 219 215 208 200 196 191 189 189 183 175 172
344 343 341 339 337 336 336 338 340 340 340 340 341 342 343 343 343 342 335 328 321 306 282 258 235 219 212 211 212 214 213 210 208 207 208 209 209 209 210 211 211 212 211 210 210 212 211 208 210 212 212 211 211 211 211 212 212 210 210 213 216 219 221 220 219 215 212 214 216 216 219 221 220 227 229 225 227 228 225 213 202 196 192 190 188 183 178 177
345 343 341 339 338 337 338 341 343 343 343 345 347 348 349 351 355 358 353 349 349 337 302 253 231 218 210 206 207 210 212 210 207 204 203 204 206 207 208 209 210 212 210 209 208 207 207 207 210 211 211 211 211 209 209 209 209 207 207 211 213 215 219 221 221 218 213 214 218 215 212 210 211 222 226 222 220 225 225 210 200 198 195 190 186 183 183 183
346 343 341 339 338 337 340 345 346 346 346 349 351 352 356 0 5 10 7 7 12 14 8 278 223 214 210 205 204 207 208 208 206 204 202 202 203 204 206 207 209 211 210 208 206 205 205 207 210 211 210 211 211 208 208 208 207 205 206 209 211 212 216 220 222 221 216 215 219 219 212 204 207 217 220 219 219 219 218 208 201 202 199 194 187 183 186 189
347 345 342 340 338 338 342 347 348 348 349 352 354 358 4 8 12 15 14 14 20 24 19 8 278 217 212 206 206 207 205 204 204 204 203 201 200 201 204 206 207 209 209 207 205 203 205 207 209 210 210 211 211 208 207 206 206 204 204 208 210 209 212 217 220 220 217 217 218 218 215 207 206 213 214 218 221 220 221 218 211 208 205 201 193 184 186 190
348 346 344 341 339 338 342 348 350 350 350 353 358 4 8 12 14 15 16 16 16 19 17 16 4 280 245 217 212 206 203 203 202 202 202 201 199 199 201 204 206 207 207 206 204 203 204 206 208 210 210 211 210 208 206 206 205 204 204 206 208 208 209 213 218 219 217 219 219 218 217 210 208 214 214 217 222 222 225 224 221 215 210 208 200 188 187 190
349 347 345 342 339 339 343 349 351 351 351 354 2 7 9 12 10 12 17 11 6 12 14 13 0 323 286 230 219 207 202 204 203 203 202 200 199 200 200 201 204 205 205 204 203 202 203 205 206 209 210 210 209 207 206 206 205 204 204 204 206 208 208 210 214 217 217 218 218 219 218 211 211 217 217 218 221 220 221 222 221 220 216 211 202 190 190 192
350 348 345 343 340 339 343 350 353 352 351 355 3 7 8 8 4 6 8 357 354 5 6 359 353 334 289 240 224 209 203 204 205 206 204 200 199 200 200 201 202 203 203 203 203 202 202 203 205 208 209 209 208 208 207 206 204 204 205 204 204 206 207 208 212 216 217 216 215 218 217 212 212 216 216 218 219 218 219 220 221 220 219 212 202 193 192 193
349 348 345 342 341 341 344 351 354 352 351 357 4 7 6 2 359 359 356 348 348 358 356 349 346 324 270 240 222 211 204 201 203 207 206 202 201 201 201 201 202 202 201 201 202 202 201 203 204 207 208 209 209 208 208 207 205 205 205 204 204 206 207 208 211 215 215 212 212 216 216 212 212 214 215 217 218 218 218 220 222 220 216 209 203 197 194 194
348 347 345 343 342 342 344 351 354 351 353 1 6 6 3 357 353 350 346 345 348 353 352 345 339 316 268 242 227 218 208 200 199 202 204 203 204 204 202 202 202 203 202 200 202 202 201 202 204 206 207 208 209 209 209 209 207 206 206 205 205 207 209 210 212 215 215 210 209 214 215 212 211 213 216 216 217 217 215 216 220 219 215 207 201 197 193 194
348 347 346 344 342 340 344 351 353 352 357 4 7 5 2 355 348 342 341 346 351 354 350 339 325 304 265 226 221 216 208 202 195 195 200 203 204 206 205 204 203 203 202 201 202 202 201 202 204 206 207 208 209 210 210 210 209 209 209 208 208 209 211 212 214 216 215 210 208 213 215 212 209 212 215 215 216 216 215 214 215 213 212 206 198 196 195 196
347 346 346 345 342 340 344 349 350 353 1 6 6 4 358 353 348 342 344 348 352 355 348 330 309 276 218 185 193 202 202 203 196 194 199 202 205 206 206 207 205 204 204 202 202 202 200 202 205 206 208 208 209 210 211 211 211 211 211 212 213 213 214 214 216 218 216 211 209 212 214 208 204 209 213 213 215 216 214 212 211 206 201 201 202 203 204 203
346 345 346 344 342 341 343 346 347 353 4 7 4 360 354 352 350 344 344 341 341 349 338 308 269 206 190 176 177 186 193 204 201 202 203 202 206 207 205 206 207 206 206 204 203 202 200 202 205 206 208 208 209 210 211 212 212 210 211 213 215 216 216 215 217 219 218 215 211 212 211 203 199 207 211 212 213 214 214 210 207 201 193 193 200 209 215 214
345 344 344 342 342 342 343 345 346 354 8 8 1 356 354 354 354 351 345 329 321 331 319 283 218 184 180 183 186 173 170 195 195 200 202 200 208 211 207 207 207 206 207 207 205 202 201 204 205 206 207 208 208 210 211 213 212 210 211 214 215 217 218 217 219 220 220 218 215 213 209 197 195 205 210 212 213 213 213 209 205 202 194 192 197 204 213 218
343 342 340 338 339 341 344 345 347 358 11 9 358 354 356 359 4 2 348 321 294 298 289 247 203 185 182 196 201 166 145 171 204 205 205 199 208 215 211 210 209 206 207 208 206 204 203 205 206 206 206 207 207 209 211 212 212 212 214 215 215 217 219 218 220 222 222 221 218 215 210 198 194 203 208 212 215 215 214 210 207 206 200 195 197 204 212 216
341 339 336 333 333 337 341 343 350 3 12 8 358 354 358 6 11 5 345 318 266 254 252 230 212 206 199 203 209 186 165 182 208 219 222 212 214 220 216 213 212 208 207 207 207 205 203 206 209 207 206 206 206 208 211 212 211 211 214 215 215 218 220 219 220 222 223 224 221 217 213 203 195 199 207 211 215 216 213 210 207 205 202 198 197 203 213 218
339 335 329 325 326 332 334 337 351 5 9 7 1 359 4 10 11 6 348 326 269 224 227 228 223 226 226 221 218 212 206 210 210 212 225 227 227 229 225 220 215 210 207 205 206 206 205 206 210 209 206 206 206 208 211 212 211 210 211 213 215 218 221 221 221 223 224 226 224 221 217 210 199 197 206 212 213 212 209 208 207 204 204 202 199 202 208 213
337 331 323 316 319 327 328 330 352 5 8 7 5 6 6 5 6 7 358 345 319 223 216 226 229 229 239 246 239 228 223 226 228 221 221 228 234 236 232 226 220 212 207 204 205 206 206 206 210 210 206 206 207 208 210 212 212 212 212 212 214 216 218 221 222 222 224 226 227 225 221 215 206 202 208 214 212 209 207 207 207 205 205 205 202 202 203 204
336 328 318 309 311 321 321 323 350 4 7 7 7 10 8 358 358 2 4 4 357 263 222 224 229 231 238 248 254 248 236 236 242 236 227 230 236 241 239 229 220 214 210 205 203 204 205 205 209 210 206 205 208 208 209 211 211 212 214 214 215 217 217 218 221 222 223 224 227 227 223 217 211 206 209 213 212 210 209 208 209 208 207 208 207 205 206 207
336 328 315 303 301 310 314 315 341 357 4 10 9 11 8 355 349 353 356 6 7 322 251 232 232 235 236 239 246 247 241 239 247 251 245 242 239 241 247 234 217 212 211 208 204 202 203 204 206 208 206 205 207 209 209 210 210 210 212 214 216 218 218 218 221 223 225 225 225 227 224 217 212 210 210 212 212 211 212 211 211 211 211 214 215 213 212 214
336 328 315 301 291 299 311 313 326 345 358 11 18 15 6 353 343 341 345 350 347 322 291 255 243 237 233 232 234 236 237 239 246 255 258 258 251 239 246 243 221 211 210 209 207 203 201 202 203 204 205 204 206 209 208 209 210 210 211 212 214 217 219 220 221 222 225 227 227 228 227 219 213 211 211 213 213 213 216 217 214 214 215 219 223 222 220 221
337 328 317 299 285 291 309 314 303 319 343 6 22 25 10 351 339 334 335 335 322 301 289 273 255 241 231 230 231 231 234 237 244 252 255 260 259 245 241 243 231 222 215 206 205 205 201 200 200 200 202 202 203 205 206 206 209 210 210 212 213 216 219 220 221 222 224 227 228 228 228 224 218 215 214 214 215 215 218 220 218 217 218 223 228 231 230 230
337 329 317 297 282 283 301 307 284 294 330 356 7 28 37 354 336 341 338 327 319 310 295 279 268 252 237 234 235 235 236 237 241 248 252 254 257 250 243 241 237 239 234 211 199 201 203 200 199 199 198 199 199 200 201 204 208 211 211 212 213 215 218 219 221 223 224 226 228 228 227 226 222 219 219 218 219 221 223 224 224 223 222 225 231 234 236 238
338 331 317 296 279 274 287 292 269 276 311 338 328 307 100 339 346 353 335 310 313 319 315 294 278 269 254 243 238 237 239 240 241 246 250 250 249 248 247 245 239 245 252 231 202 198 201 201 200 200 198 197 199 200 201 203 207 210 212 212 213 214 217 219 221 224 226 226 228 230 230 229 227 225 224 223 222 225 227 229 231 232 230 230 231 232 235 241
338 332 316 292 272 262 271 277 259 261 282 305 298 253 222 249 256 33 326 288 296 313 322 316 296 284 273 261 252 245 243 244 243 243 243 242 240 241 244 246 244 245 254 250 216 199 199 202 203 203 199 196 198 201 202 204 207 210 212 214 215 215 217 219 220 223 226 227 228 230 231 231 231 230 230 230 228 228 229 230 231 233 234 234 233 232 234 240
339 331 315 288 265 252 254 261 254 251 259 270 270 246 221 261 294 340 340 288 284 294 304 311 312 305 293 279 268 262 258 256 249 240 235 233 232 235 238 241 244 245 251 256 237 206 199 201 205 207 204 200 198 201 204 206 207 210 213 215 217 218 218 219 220 222 226 229 229 230 231 231 231 232 232 233 234 234 235 237 237 236 237 239 240 240 242 244
340 332 314 284 256 242 240 246 247 244 246 249 248 247 242 271 302 330 351 332 314 303 292 292 296 302 305 298 280 270 271 276 265 240 229 227 227 229 233 235 239 246 251 255 247 217 203 202 205 208 207 204 202 202 204 207 209 211 213 216 218 221 221 220 221 222 224 228 230 230 232 233 231 231 232 234 236 238 240 243 245 245 246 248 249 250 252 253
341 335 317 282 251 234 229 236 244 242 242 240 237 242 250 264 294 331 358 356 345 329 309 298 289 286 293 298 286 271 270 281 275 239 220 221 224 226 230 232 233 244 252 255 250 230 211 207 209 212 207 203 204 205 205 207 211 212 215 217 219 222 224 223 223 223 224 226 229 230 232 234 234 233 232 233 235 238 240 242 245 248 251 253 255 256 257 258
342 338 323 285 251 230 222 230 242 246 244 239 233 232 233 245 286 339 1 0 355 337 325 324 312 291 287 290 279 260 250 249 243 225 214 217 224 226 229 229 227 233 246 254 256 242 222 213 214 217 214 204 202 204 206 208 211 214 217 220 221 223 225 225 225 225 225 225 227 230 231 234 237 236 235 235 235 236 238 240 243 245 249 252 254 256 258 259
343 340 327 290 254 229 220 224 233 242 245 241 235 229 228 237 265 334 356 355 352 345 342 343 335 320 313 304 273 233 225 220 207 208 214 220 225 224 224 222 219 222 233 246 257 253 238 226 219 219 222 217 206 203 205 209 211 214 217 220 223 226 227 228 228 227 227 227 227 229 230 231 235 238 238 237 238 239 240 243 246 247 249 252 254 256 258 260
Height
5872 5871 5870 5869 5868 5868 5867 5866 5865 5864 5864 5863 5862 5862 5861 5862 5862 5862 5862 5862 5863 5863 5864 5865 5866 5867 5867 5867 5868 5869 5871 5872 5873 5874 5874 5876 5879 5880 5881 5883 5886 5888 5889 5890 5891 5891 5892 5894 5895 5896 5897 5898 5899 5900 5901 5902 5902 5903 5904 5904 5905 5905 5904 5904 5903 5903 5903 5904 5906 5909 5911 5913 5913 5914 5914 5915 5915 5916 5916 5916 5918 5920 5921 5922 5921 5917 5916 5920
5870 5869 5868 5867 5866 5865 5865 5864 5863 5862 5861 5860 5860 5859 5858 5858 5858 5859 5859 5860 5860 5861 5862 5862 5863 5864 5865 5866 5866 5867 5868 5869 5871 5871 5872 5875 5877 5878 5880 5882 5884 5886 5887 5888 5889 5889 5891 5892 5894 5895 5896 5897 5898 5899 5900 5901 5902 5903 5904 5904 5905 5905 5904 5904 5904 5903 5903 5904 5907 5909 5911 5912 5913 5913 5913 5914 5915 5915 5916 5916 5918 5920 5921 5923 5923 5919 5917 5920
5869 5867 5866 5865 5864 5863 5862 5861 5860 5859 5858 5858 5857 5856 5856 5855 5855 5855 5856 5856 5857 5858 5859 5859 5860 5861 5863 5864 5865 5865 5866 5867 5868 5867 5871 5874 5875 5876 5878 5880 5882 5884 5886 5887 5888 5889 5890 5892 5894 5895 5896 5897 5898 5899 5900 5901 5902 5903 5903 5904 5905 5904 5904 5904 5904 5903 5903 5905 5907 5909 5910 5911 5912 5912 5913 5914 5915 5915 5916 5916 5917 5920 5921 5923 5924 5921 5919 5921
5866 5865 5863 5862 5861 5860 5858 5858 5857 5856 5855 5854 5854 5853 5853 5852 5852 5852 5852 5853 5853 5854 5855 5856 5857 5858 5859 5861 5862 5863 5864 5865 5864 5865 5869 5871 5872 5875 5877 5879 5880 5882 5884 5886 5887 5889 5890 5892 5893 5894 5896 5897 5898 5899 5899 5900 5901 5902 5903 5904 5905 5905 5904 5904 5904 5904 5903 5905 5907 5909 5910 5911 5912 5912 5912 5914 5914 5915 5916 5916 5916 5918 5921 5922 5924 5922 5920 5921
5864 5862 5861 5859 5858 5856 5855 5854 5853 5852 5852 5851 5850 5850 5849 5849 5849 5849 5848 5849 5849 5850 5851 5852 5853 5854 5856 5857 5859 5860 5861 5862 5862 5864 5868 5868 5870 5873 5874 5877 5878 5880 5883 5885 5887 5888 5889 5890 5892 5894 5895 5896 5897 5898 5899 5900 5901 5902 5903 5904 5905 5905 5904 5904 5905 5904 5904 5906 5907 5909 5909 5910 5912 5912 5912 5913 5914 5915 5916 5917 5917 5918 5919 5920 5922 5922 5921 5922
5861 5860 5858 5856 5855 5853 5852 5850 5849 5848 5847 5847 5846 5846 5845 5845 5845 5845 5845 5845 5845 5846 5847 5848 5849 5850 5852 5853 5855 5857 5858 5859 5860 5863 5865 5865 5868 5871 5872 5875 5877 5879 5881 5883 5885 5887 5888 5889 5891 5892 5893 5894 5895 5896 5897 5899 5900 5901 5902 5903 5904 5905 5905 5905 5906 5905 5906 5908 5908 5909 5910 5910 5911 5913 5914 5914 5915 5916 5916 5918 5918 5919 5919 5920 5921 5922 5922 5923
5858 5856 5855 5853 5852 5850 5849 5847 5845 5844 5843 5842 5842 5841 5841 5841 5841 5841 5841 5840 5841 5841 5842 5843 5844 5846 5848 5849 5851 5853 5854 5856 5858 5860 5862 5863 5866 5868 5870 5873 5875 5877 5880 5882 5884 5886 5887 5888 5889 5891 5892 5893 5893 5895 5896 5898 5899 5901 5902 5903 5904 5905 5905 5905 5906 5907 5907 5908 5908 5909 5910 5911 5912 5914 5915 5915 5916 5917 5917 5918 5919 5920 5921 5921 5922 5922 5923 5923
5855 5853 5851 5850 5848 5846 5845 5843 5842 5840 5839 5838 5837 5837 5837 5836 5836 5836 5836 5836 5836 5837 5838 5839 5840 5841 5843 5845 5847 5849 5850 5852 5854 5857 5859 5860 5863 5865 5867 5871 5873 5875 5878 5879 5881 5883 5884 5886 5887 5889 5890 5891 5892 5893 5895 5897 5899 5900 5901 5902 5904 5905 5905 5906 5907 5907 5907 5908 5909 5910 5911 5912 5913 5914 5915 5916 5917 5917 5917 5918 5919 5920 5921 5923 5924 5923 5923 5924
5852 5850 5848 5846 5844 5842 5841 5839 5837 5836 5835 5833 5833 5832 5832 5831 5831 5831 5831 5831 5831 5832 5833 5834 5835 5837 5839 5841 5843 5844 5846 5849 5851 5853 5856 5858 5860 5862 5864 5868 5871 5873 5875 5877 5879 5881 5882 5883 5885 5887 5888 5888 5890 5892 5894 5896 5898 5900 5901 5902 5903 5905 5906 5906 5907 5908 5908 5908 5909 5910 5911 5912 5913 5914 5915 5916 5916 5917 5918 5918 5919 5920 5921 5924 5925 5924 5924 5925
5848 5846 5844 5842 5840 5838 5836 5834 5833 5832 5830 5829 5828 5827 5827 5826 5826 5826 5826 5826 5827 5827 5828 5829 5830 5832 5834 5836 5838 5840 5842 5845 5847 5850 5852 5854 5857 5859 5862 5865 5868 5870 5872 5874 5876 5878 5879 5881 5883 5885 5886 5887 5890 5891 5893 5895 5897 5899 5901 5902 5903 5904 5906 5906 5906 5907 5908 5908 5908 5909 5910 5911 5913 5914 5915 5916 5917 5917 5918 5919 5919 5920 5921 5923 5925 5925 5924 5925
5844 5842 5839 5837 5835 5833 5832 5830 5829 5827 5826 5824 5823 5822 5822 5821 5821 5821 5821 5821 5822 5822 5823 5824 5826 5827 5829 5831 5833 5835 5837 5841 5843 5846 5849 5851 5853 5856 5858 5862 5865 5867 5869 5872 5873 5875 5877 5879 5881 5883 5885 5887 5889 5890 5891 5893 5896 5898 5900 5901 5902 5903 5905 5905 5906 5907 5909 5908 5908 5909 5910 5911 5912 5913 5915 5916 5916 5917 5918 5919 5920 5920 5921 5923 5925 5925 5925 5925
5840 5838 5835 5833 5831 5829 5827 5826 5824 5823 5821 5820 5818 5817 5816 5816 5816 5816 5816 5816 5817 5817 5818 5820 5821 5822 5824 5826 5828 5830 5833 5837 5839 5842 5845 5847 5850 5853 5855 5858 5861 5864 5866 5868 5870 5872 5875 5877 5880 5882 5884 5886 5887 5888 5890 5892 5895 5897 5899 5900 5901 5902 5904 5905 5906 5907 5908 5908 5909 5909 5910 5910 5911 5913 5914 5915 5916 5917 5918 5919 5920 5920 5921 5923 5925 5926 5926 5926
5836 5834 5831 5829 5827 5825 5823 5821 5819 5818 5816 5815 5813 5812 5811 5810 5810 5811 5811 5811 5812 5813 5814 5815 5816 5818 5820 5821 5823 5826 5829 5833 5835 5838 5840 5843 5846 5849 5852 5855 5858 5860 5863 5865 5867 5870 5872 5875 5878 5880 5883 5884 5885 5887 5889 5892 5894 5896 5898 5899 5900 5902 5903 5904 5905 5906 5907 5907 5909 5910 5910 5911 5911 5912 5914 5915 5916 5917 5918 5919 5920 5921 5921 5922 5924 5925 5926 5926
5832 5829 5827 5825 5823 5821 5819 5817 5815 5813 5812 5810 5809 5808 5807 5806 5806 5806 5806 5807 5807 5808 5809 5810 5812 5813 5815 5816 5819 5822 5825 5828 5830 5833 5836 5838 5841 5843 5847 5850 5853 5856 5859 5862 5865 5868 5871 5873 5876 5878 5880 5881 5884 5886 5888 5890 5892 5894 5896 5898 5899 5901 5903 5903 5904 5906 5907 5908 5909 5910 5910 5910 5910 5912 5913 5914 5915 5916 5917 5918 5920 5921 5921 5922 5924 5925 5925 5926
5828 5826 5823 5821 5819 5817 5815 5813 5811 5809 5808 5806 5805 5804 5803 5802 5802 5802 5802 5802 5803 5804 5805 5806 5807 5809 5810 5812 5814 5817 5819 5822 5825 5827 5830 5833 5835 5838 5842 5845 5849 5852 5855 5858 5862 5865 5868 5871 5874 5876 5877 5880 5883 5884 5886 5889 5891 5893 5895 5897 5898 5900 5902 5903 5904 5906 5908 5909 5909 5909 5910 5910 5910 5911 5913 5914 5915 5916 5917 5917 5919 5921 5921 5922 5923 5924 5926 5927
5824 5822 5819 5817 5815 5813 5811 5809 5807 5806 5804 5803 5802 5801 5800 5799 5799 5799 5798 5799 5799 5800 5801 5802 5803 5804 5806 5808 5810 5812 5814 5817 5820 5823 5825 5828 5831 5835 5838 5842 5845 5848 5851 5855 5858 5862 5865 5869 5872 5874 5876 5879 5881 5882 5885 5887 5889 5892 5894 5896 5897 5899 5901 5903 5905 5906 5908 5909 5909 5909 5910 5910 5910 5911 5912 5913 5915 5916 5917 5917 5918 5920 5921 5921 5923 5924 5926 5927
5821 5818 5816 5814 5811 5809 5807 5806 5804 5803 5802 5800 5799 5798 5797 5797 5796 5796 5795 5795 5796 5796 5797 5798 5799 5800 5802 5803 5805 5807 5810 5813 5816 5819 5822 5826 5829 5832 5835 5839 5842 5845 5848 5851 5854 5859 5862 5866 5869 5871 5874 5877 5879 5881 5883 5885 5888 5892 5894 5895 5896 5897 5900 5903 5904 5906 5906 5907 5908 5909 5910 5910 5910 5911 5912 5913 5914 5915 5916 5917 5918 5920 5921 5921 5922 5924 5925 5926
5818 5815 5812 5810 5808 5806 5805 5803 5802 5801 5799 5798 5797 5796 5795 5794 5793 5793 5793 5792 5793 5793 5793 5794 5795 5796 5798 5799 5802 5804 5806 5810 5813 5815 5819 5823 5826 5830 5833 5836 5839 5842 5845 5848 5851 5856 5859 5862 5865 5868 5871 5874 5877 5880 5883 5885 5888 5891 5892 5894 5895 5896 5898 5901 5903 5904 5904 5906 5907 5907 5908 5909 5910 5911 5912 5913 5914 5915 5916 5916 5917 5918 5920 5921 5922 5923 5924 5925
5814 5812 5809 5807 5806 5804 5802 5801 5800 5799 5797 5796 5795 5794 5793 5792 5791 5791 5790 5790 5790 5790 5790 5790 5791 5792 5794 5796 5798 5801 5803 5806 5809 5812 5815 5819 5823 5826 5830 5833 5836 5839 5842 5846 5849 5853 5856 5859 5862 5865 5869 5872 5876 5880 5883 5884 5886 5887 5889 5891 5893 5895 5897 5898 5900 5902 5903 5904 5905 5905 5906 5907 5908 5910 5911 5912 5913 5914 5915 5916 5917 5918 5919 5920 5921 5922 5924 5925
5811 5809 5807 5805 5803 5802 5801 5799 5798 5797 5795 5794 5793 5792 5791 5790 5789 5788 5788 5787 5787 5787 5787 5787 5788 5789 5791 5793 5795 5797 5800 5802 5805 5808 5811 5815 5819 5823 5826 5829 5832 5836 5839 5843 5847 5851 5854 5857 5859 5864 5868 5871 5875 5878 5880 5880 5882 5884 5886 5888 5891 5894 5895 5895 5897 5899 5901 5901 5902 5904 5904 5905 5907 5908 5910 5911 5912 5913 5914 5915 5917 5918 5919 5920 5921 5922 5923 5924
5809 5807 5805 5803 5801 5800 5799 5798 5797 5795 5794 5793 5792 5790 5789 5788 5787 5786 5785 5784 5784 5784 5784 5784 5785 5786 5787 5789 5791 5793 5796 5798 5801 5805 5808 5811 5816 5819 5822 5825 5829 5833 5836 5840 5844 5847 5851 5854 5858 5863 5866 5868 5871 5874 5875 5877 5880 5883 5885 5886 5888 5890 5893 5894 5895 5898 5899 5900 5902 5904 5905 5905 5906 5908 5909 5910 5911 5912 5913 5914 5916 5917 5918 5919 5920 5921 5922 5924
5807 5805 5803 5802 5800 5799 5798 5797 5796 5794 5793 5792 5790 5789 5787 5786 5785 5783 5782 5781 5781 5781 5781 5781 5782 5783 5784 5786 5787 5790 5792 5795 5798 5802 5805 5809 5812 5816 5819 5823 5826 5829 5833 5836 5840 5844 5848 5853 5858 5860 5862 5864 5868 5870 5872 5875 5878 5881 5883 5885 5886 5887 5890 5892 5895 5899 5901 5902 5902 5903 5904 5905 5906 5907 5909 5910 5910 5911 5912 5913 5914 5915 5916 5917 5919 5920 5922 5924
5806 5804 5802 5800 5799 5798 5797 5796 5795 5793 5792 5791 5789 5787 5786 5784 5782 5781 5780 5779 5779 5778 5778 5778 5779 5780 5782 5783 5785 5787 5789 5792 5796 5799 5802 5806 5809 5812 5816 5820 5823 5826 5829 5834 5838 5843 5847 5852 5855 5856 5858 5861 5864 5867 5870 5873 5876 5879 5882 5883 5883 5884 5887 5891 5894 5898 5900 5900 5901 5901 5903 5905 5906 5907 5908 5909 5910 5910 5910 5911 5912 5914 5915 5916 5918 5920 5921 5923
5804 5802 5801 5800 5798 5797 5796 5795 5794 5793 5791 5790 5788 5786 5784 5783 5781 5780 5779 5778 5777 5777 5777 5777 5777 5778 5780 5781 5783 5785 5787 5790 5793 5796 5799 5803 5806 5810 5813 5816 5820 5823 5826 5831 5836 5841 5846 5849 5850 5852 5855 5858 5861 5864 5868 5871 5874 5877 5880 5881 5882 5883 5885 5888 5891 5894 5897 5898 5899 5900 5902 5905 5906 5906 5906 5908 5909 5909 5909 5910 5911 5913 5914 5915 5917 5919 5920 5921
5803 5801 5800 5799 5797 5796 5795 5794 5793 5792 5790 5789 5787 5785 5784 5782 5781 5780 5778 5778 5777 5776 5776 5776 5777 5777 5778 5779 5781 5783 5785 5788 5791 5793 5796 5800 5803 5807 5810 5813 5817 5820 5824 5828 5833 5837 5842 5845 5846 5849 5853 5855 5858 5862 5865 5869 5872 5875 5878 5879 5879 5881 5883 5885 5888 5891 5894 5896 5897 5899 5901 5904 5905 5904 5905 5907 5908 5908 5908 5908 5909 5911 5912 5914 5916 5918 5920 5921
5802 5800 5799 5798 5797 5796 5795 5794 5792 5791 5789 5788 5786 5785 5783 5782 5781 5780 5779 5778 5777 5777 5776 5776 5777 5777 5778 5779 5779 5781 5783 5786 5789 5792 5794 5797 5800 5804 5807 5811 5814 5818 5822 5826 5830 5835 5838 5840 5843 5846 5850 5853 5856 5859 5863 5866 5870 5873 5875 5877 5878 5879 5881 5883 5885 5888 5892 5894 5895 5897 5900 5903 5903 5903 5904 5905 5906 5907 5906 5906 5907 5909 5910 5912 5914 5917 5918 5920
5801 5800 5798 5797 5796 5795 5794 5793 5792 5790 5789 5787 5786 5785 5783 5782 5781 5780 5780 5779 5778 5778 5777 5777 5777 5777 5778 5778 5779 5780 5782 5784 5787 5790 5792 5795 5798 5801 5805 5808 5811 5815 5819 5823 5827 5831 5835 5837 5840 5844 5847 5850 5853 5857 5860 5863 5867 5870 5873 5874 5875 5877 5879 5881 5883 5885 5889 5891 5892 5894 5898 5901 5902 5902 5904 5905 5905 5906 5906 5907 5907 5908 5909 5910 5913 5915 5917 5919
5801 5799 5798 5796 5795 5794 5793 5792 5791 5790 5788 5787 5786 5784 5783 5782 5782 5781 5780 5779 5779 5779 5778 5777 5777 5777 5778 5778 5779 5780 5782 5783 5785 5788 5790 5793 5796 5799 5802 5805 5809 5812 5817 5821 5825 5828 5831 5834 5838 5841 5844 5848 5851 5855 5858 5861 5864 5867 5870 5871 5873 5874 5876 5878 5880 5883 5886 5888 5890 5893 5895 5899 5900 5901 5903 5904 5904 5905 5905 5906 5907 5908 5909 5909 5911 5914 5915 5917
5800 5798 5797 5796 5795 5794 5793 5792 5791 5789 5788 5787 5785 5784 5783 5783 5782 5781 5781 5780 5780 5779 5778 5778 5778 5777 5778 5778 5778 5780 5781 5783 5784 5786 5788 5791 5794 5797 5799 5803 5806 5810 5814 5818 5822 5825 5828 5831 5835 5838 5842 5845 5849 5852 5854 5857 5861 5864 5867 5869 5870 5872 5873 5876 5878 5881 5883 5886 5889 5891 5893 5896 5898 5899 5901 5902 5902 5903 5903 5903 5904 5907 5908 5908 5910 5912 5914 5916
5799 5798 5796 5795 5794 5793 5792 5791 5790 5789 5788 5787 5785 5784 5783 5783 5782 5782 5781 5781 5780 5780 5779 5778 5778 5777 5777 5777 5778 5779 5780 5782 5783 5785 5787 5790 5792 5795 5797 5801 5804 5807 5811 5816 5819 5822 5825 5828 5832 5835 5839 5842 5845 5848 5851 5854 5857 5861 5863 5866 5868 5869 5871 5874 5876 5878 5881 5884 5887 5889 5891 5894 5896 5898 5899 5900 5900 5901 5902 5902 5903 5905 5907 5907 5909 5910 5912 5914
5799 5797 5796 5794 5793 5792 5792 5791 5790 5789 5788 5787 5786 5785 5784 5783 5782 5782 5782 5781 5780 5780 5779 5778 5778 5777 5777 5777 5778 5779 5780 5781 5783 5785 5787 5789 5791 5793 5796 5799 5802 5806 5809 5813 5816 5818 5822 5825 5829 5832 5836 5839 5842 5845 5848 5851 5854 5857 5859 5863 5865 5867 5869 5871 5874 5876 5878 5883 5886 5887 5890 5892 5895 5896 5897 5898 5899 5900 5901 5902 5902 5904 5906 5907 5908 5910 5911 5913
5798 5796 5795 5794 5793 5792 5791 5790 5789 5789 5788 5787 5786 5785 5784 5783 5782 5782 5781 5781 5780 5780 5779 5778 5778 5777 5777 5778 5778 5779 5780 5781 5782 5784 5786 5788 5790 5792 5795 5797 5800 5804 5807 5810 5813 5815 5819 5823 5826 5830 5833 5836 5839 5842 5845 5848 5851 5854 5856 5860 5862 5864 5866 5869 5872 5874 5877 5882 5885 5886 5888 5891 5893 5895 5895 5897 5898 5899 5900 5901 5902 5903 5905 5906 5907 5908 5910 5911
5797 5796 5794 5793 5792 5791 5791 5790 5789 5788 5787 5787 5786 5785 5784 5783 5782 5782 5781 5781 5780 5780 5779 5779 5778 5778 5778 5778 5778 5779 5780 5781 5782 5783 5784 5786 5788 5791 5794 5796 5799 5802 5805 5808 5811 5814 5818 5821 5824 5827 5830 5833 5836 5839 5842 5845 5848 5851 5854 5857 5859 5861 5864 5867 5870 5872 5875 5880 5883 5885 5887 5890 5892 5893 5894 5896 5897 5898 5900 5901 5902 5903 5905 5906 5906 5907 5908 5910
5797 5795 5794 5793 5792 5791 5790 5789 5789 5788 5787 5786 5785 5784 5784 5783 5782 5781 5781 5780 5780 5780 5779 5779 5778 5778 5778 5778 5779 5779 5780 5780 5781 5782 5783 5785 5787 5789 5792 5795 5798 5800 5803 5806 5809 5812 5816 5819 5821 5824 5827 5831 5834 5837 5841 5844 5847 5850 5853 5856 5858 5859 5863 5866 5868 5871 5874 5879 5882 5883 5885 5889 5891 5892 5894 5896 5896 5898 5899 5901 5902 5903 5904 5906 5907 5908 5909 5910
5796 5795 5793 5792 5791 5790 5789 5789 5788 5788 5787 5786 5785 5784 5784 5783 5782 5781 5780 5780 5780 5780 5780 5779 5779 5779 5779 5779 5779 5780 5780 5781 5782 5783 5783 5785 5786 5788 5790 5793 5796 5799 5802 5804 5807 5810 5813 5816 5819 5822 5826 5829 5833 5836 5839 5841 5844 5848 5851 5853 5855 5858 5861 5864 5867 5869 5873 5877 5879 5881 5884 5888 5891 5892 5894 5895 5896 5897 5899 5900 5902 5902 5903 5905 5907 5909 5910 5910
5796 5794 5793 5792 5791 5790 5789 5788 5788 5787 5786 5785 5785 5784 5783 5783 5782 5781 5780 5780 5780 5780 5780 5780 5780 5780 5780 5780 5780 5781 5781 5782 5782 5783 5784 5785 5786 5788 5789 5791 5794 5797 5800 5802 5805 5808 5811 5814 5817 5820 5824 5827 5831 5834 5837 5839 5842 5845 5848 5849 5853 5857 5859 5862 5864 5867 5871 5874 5876 5879 5883 5887 5890 5891 5893 5894 5895 5897 5898 5899 5901 5902 5903 5904 5905 5907 5908 5910
5795 5794 5792 5791 5790 5789 5788 5788 5787 5787 5786 5785 5784 5784 5783 5783 5782 5781 5780 5780 5780 5780 5781 5781 5780 5781 5781 5781 5781 5781 5782 5783 5783 5784 5785 5785 5786 5787 5789 5791 5792 5795 5798 5801 5804 5806 5809 5812 5815 5818 5821 5825 5829 5832 5834 5836 5840 5844 5846 5849 5853 5854 5856 5859 5862 5865 5868 5871 5874 5877 5881 5885 5888 5889 5891 5893 5895 5896 5898 5899 5900 5901 5902 5903 5904 5905 5906 5908
5794 5793 5792 5790 5789 5788 5788 5787 5787 5786 5785 5785 5784 5784 5783 5782 5781 5780 5780 5780 5780 5780 5780 5781 5781 5781 5782 5782 5782 5782 5783 5784 5784 5785 5785 5786 5787 5787 5789 5790 5792 5794 5796 5799 5802 5805 5808 5810 5812 5815 5819 5823 5827 5829 5831 5834 5838 5842 5845 5848 5850 5852 5854 5857 5860 5862 5865 5867 5871 5875 5879 5883 5886 5888 5890 5892 5894 5896 5897 5898 5899 5900 5901 5902 5903 5903 5904 5906
5793 5792 5791 5790 5789 5788 5787 5787 5786 5785 5785 5785 5784 5783 5782 5781 5781 5780 5780 5780 5779 5779 5780 5781 5781 5782 5782 5782 5783 5783 5784 5784 5785 5785 5786 5787 5787 5788 5789 5790 5791 5793 5796 5798 5801 5803 5806 5809 5811 5814 5818 5822 5824 5826 5829 5832 5836 5839 5842 5845 5848 5850 5853 5855 5858 5861 5863 5866 5869 5873 5877 5881 5885 5888 5889 5890 5892 5894 5895 5897 5898 5899 5901 5901 5902 5902 5903 5905
5792 5791 5790 5789 5788 5787 5787 5786 5786 5785 5785 5784 5783 5783 5782 5781 5780 5780 5780 5779 5779 5779 5780 5780 5781 5781 5782 5782 5783 5783 5784 5785 5785 5786 5786 5787 5787 5788 5789 5790 5791 5793 5795 5797 5799 5802 5804 5807 5809 5812 5816 5819 5822 5824 5827 5831 5834 5837 5839 5842 5845 5847 5850 5853 5856 5859 5862 5864 5868 5871 5874 5879 5884 5886 5887 5889 5891 5892 5894 5895 5896 5898 5899 5900 5901 5901 5901 5902
5791 5790 5789 5788 5787 5787 5786 5786 5785 5785 5784 5784 5783 5782 5782 5781 5780 5780 5780 5779 5779 5779 5779 5780 5780 5781 5781 5782 5782 5783 5783 5784 5785 5785 5786 5787 5787 5788 5788 5789 5791 5792 5794 5796 5798 5800 5803 5805 5808 5811 5814 5817 5820 5822 5826 5829 5832 5836 5839 5842 5844 5846 5848 5851 5853 5856 5859 5862 5865 5868 5872 5877 5881 5884 5886 5887 5889 5891 5892 5893 5894 5896 5897 5899 5900 5900 5900 5900
5789 5788 5788 5787 5787 5786 5786 5785 5785 5784 5784 5783 5783 5782 5781 5781 5780 5780 5779 5779 5779 5778 5779 5779 5780 5780 5781 5781 5781 5782 5782 5783 5784 5785 5785 5786 5787 5787 5788 5788 5790 5792 5793 5795 5796 5798 5801 5803 5807 5810 5813 5815 5818 5821 5824 5827 5830 5833 5837 5840 5842 5845 5847 5849 5851 5854 5858 5860 5863 5866 5870 5875 5878 5881 5883 5885 5887 5889 5891 5892 5893 5894 5896 5898 5899 5899 5900 5900
5788 5787 5786 5786 5786 5786 5785 5785 5784 5784 5783 5783 5783 5782 5781 5781 5780 5780 5779 5779 5778 5778 5778 5778 5779 5779 5780 5780 5781 5781 5782 5782 5783 5784 5785 5785 5786 5787 5787 5787 5789 5790 5792 5794 5796 5798 5800 5802 5805 5808 5811 5814 5816 5819 5822 5824 5827 5830 5833 5836 5839 5842 5845 5847 5850 5853 5856 5859 5862 5865 5868 5872 5876 5878 5881 5883 5885 5887 5889 5890 5892 5893 5895 5896 5897 5899 5900 5901
5787 5785 5785 5785 5784 5784 5784 5784 5784 5783 5783 5782 5782 5782 5781 5781 5780 5779 5779 5778 5778 5778 5778 5778 5778 5778 5779 5779 5779 5780 5781 5781 5782 5783 5784 5784 5785 5785 5786 5787 5787 5788 5790 5792 5794 5797 5799 5801 5803 5806 5809 5812 5814 5817 5819 5821 5824 5827 5830 5834 5837 5840 5843 5846 5848 5851 5853 5856 5859 5862 5866 5870 5873 5876 5879 5881 5883 5885 5886 5888 5890 5891 5893 5894 5896 5897 5898 5900
5785 5784 5784 5783 5783 5783 5783 5783 5783 5783 5782 5782 5782 5781 5781 5781 5780 5779 5779 5778 5778 5777 5777 5777 5777 5777 5778 5778 5778 5779 5779 5780 5781 5782 5782 5783 5783 5784 5785 5786 5787 5787 5787 5789 5792 5795 5798 5800 5802 5805 5807 5809 5812 5814 5816 5819 5821 5825 5828 5831 5835 5838 5840 5843 5846 5848 5850 5854 5856 5859 5863 5867 5870 5873 5876 5879 5881 5883 5884 5886 5888 5889 5891 5892 5894 5896 5897 5898
5784 5783 5782 5782 5782 5782 5782 5782 5782 5782 5782 5781 5781 5781 5781 5780 5780 5779 5779 5778 5777 5777 5776 5776 5776 5776 5777 5777 5777 5777 5778 5779 5779 5780 5780 5781 5782 5782 5783 5784 5785 5785 5785 5787 5790 5793 5796 5799 5801 5803 5805 5807 5810 5812 5814 5817 5820 5822 5826 5829 5832 5835 5838 5841 5843 5846 5848 5852 5854 5857 5860 5864 5867 5870 5873 5876 5878 5880 5882 5884 5886 5887 5889 5891 5893 5895 5896 5896
5782 5781 5781 5781 5781 5781 5781 5781 5781 5781 5781 5781 5781 5781 5780 5780 5779 5779 5778 5778 5777 5776 5776 5776 5776 5776 5776 5776 5776 5776 5776 5777 5777 5778 5778 5779 5780 5781 5782 5783 5784 5784 5784 5785 5789 5792 5795 5798 5800 5801 5803 5805 5808 5810 5813 5815 5818 5821 5824 5827 5829 5833 5835 5838 5841 5844 5846 5849 5852 5855 5858 5862 5865 5868 5870 5873 5875 5877 5879 5881 5883 5885 5886 5889 5891 5893 5894 5895
5781 5780 5779 5779 5779 5780 5780 5780 5780 5780 5780 5780 5780 5780 5780 5779 5779 5778 5778 5777 5777 5776 5776 5775 5775 5775 5775 5775 5775 5775 5775 5775 5775 5776 5776 5777 5778 5779 5780 5781 5782 5783 5783 5784 5787 5790 5793 5796 5798 5799 5801 5803 5806 5809 5812 5814 5817 5819 5822 5825 5827 5830 5833 5836 5839 5842 5844 5847 5850 5853 5856 5859 5862 5865 5868 5870 5872 5874 5876 5878 5880 5882 5884 5886 5888 5890 5892 5893
5779 5778 5778 5778 5778 5778 5779 5779 5779 5779 5779 5779 5779 5779 5779 5778 5778 5778 5777 5777 5777 5776 5775 5775 5774 5774 5773 5773 5773 5774 5774 5774 5774 5773 5774 5775 5776 5777 5779 5780 5781 5782 5782 5783 5786 5789 5792 5794 5796 5798 5800 5802 5804 5807 5810 5813 5816 5818 5821 5823 5825 5828 5830 5833 5836 5839 5842 5845 5847 5851 5853 5856 5859 5862 5865 5867 5869 5871 5873 5875 5877 5879 5881 5883 5885 5887 5889 5890
5778 5777 5776 5776 5776 5777 5777 5778 5778 5778 5778 5778 5778 5778 5778 5778 5777 5777 5777 5776 5776 5775 5775 5774 5774 5773 5772 5772 5772 5772 5772 5773 5772 5772 5773 5774 5775 5776 5777 5779 5780 5781 5781 5782 5784 5787 5790 5793 5795 5796 5798 5801 5803 5805 5808 5811 5814 5817 5819 5821 5823 5825 5828 5831 5834 5836 5839 5842 5845 5848 5851 5853 5856 5859 5862 5865 5867 5869 5871 5873 5874 5876 5878 5880 5882 5884 5885 5887
5777 5776 5775 5775 5775 5775 5776 5776 5776 5776 5777 5777 5777 5777 5777 5777 5776 5776 5776 5776 5775 5775 5774 5774 5773 5772 5772 5771 5770 5771 5771 5772 5772 5772 5773 5773 5774 5775 5776 5777 5779 5780 5780 5781 5783 5785 5788 5791 5793 5795 5797 5799 5801 5803 5806 5808 5811 5814 5817 5819 5821 5823 5825 5828 5831 5834 5837 5840 5842 5845 5848 5851 5853 5856 5859 5862 5864 5866 5868 5870 5871 5873 5875 5877 5879 5880 5882 5883
5775 5774 5773 5773 5773 5774 5774 5775 5775 5775 5775 5776 5776 5776 5776 5776 5776 5776 5776 5775 5775 5774 5774 5773 5772 5772 5771 5769 5769 5770 5771 5771 5771 5772 5772 5773 5774 5775 5775 5776 5778 5779 5780 5781 5781 5783 5786 5789 5791 5793 5795 5797 5799 5801 5803 5806 5809 5811 5814 5817 5819 5821 5824 5826 5829 5831 5834 5837 5839 5842 5845 5848 5850 5852 5856 5858 5861 5863 5865 5867 5868 5870 5872 5873 5875 5876 5878 5879